Flag for Bolivia Weather past 2 weeks in Santa Cruz, Bolivia

Now
88 °F

Partly sunny.


Feels Like: 94 °F
Forecast: 70 / 87 °F
Wind: 12 mph from North

Location: Santa Cruz / El Trompillo


UV Index: 7 (High)

Visibility: N/A


Pressure: 29.77 "Hg

Humidity: 59%

Dew point: 72 °F

Location of Santa CruzLocation

Historic Weather in Santa Cruz

°F

Santa Cruz temperature yesterday

Maximum temperature yesterday: 86 °F (at 1:00 PM)
Minimum temperature yesterday: 68 °F (at 6:00 AM)
Average temperature yesterday: 80 °F

Past Weeks' High & Low Weather Summary

 TemperatureHumidityPressure
High91 °F (Apr 4, 1:00 PM)100% (Apr 5, 5:00 AM)30.15 "Hg (Apr 5, 5:00 AM)
Low59 °F (Apr 14, 7:00 AM)30% (Apr 14, 5:00 PM)29.68 "Hg (Apr 7, 4:00 PM)
Average78 °F72%29.87 "Hg
* Reported Apr 3 3:00 PM — Apr 18 3:00 PM, Santa Cruz, Weather by CustomWeather, © 2014

Note: Actual official high and low records may vary slightly from our data, if they occured in-between our weather recording intervals... More about our weather records

Advertising

Historic Weather Conditions — Data for Previous 24 hours

 ConditionsComfort  
Time TempWeatherWind HumidityBarometerVisibility
3:00 PM
Apr 18
88 °FPartly sunny.12 mph59%29.77 "HgN/A
2:00 PM88 °FPartly sunny.10 mph59%29.80 "HgN/A
1:00 PM86 °FBroken clouds.9 mph62%29.83 "HgN/A
12:00 PM81 °FBroken clouds.3 mph74%29.89 "HgN/A
11:00 AM79 °FPartly sunny.5 mph74%29.92 "HgN/A
10:00 AM82 °FBroken clouds.5 mph66%29.92 "HgN/A
9:00 AM79 °FPartly sunny.8 mph79%29.92 "HgN/A
8:00 AM75 °FPartly sunny.12 mph83%29.92 "HgN/A
7:00 AM72 °FClear.5 mph94%29.89 "HgN/A
6:00 AM72 °FClear.6 mph94%29.86 "HgN/A
5:00 AM72 °FClear.3 mph94%29.86 "HgN/A
7:00 PM
Apr 17
81 °FPassing clouds.6 mph74%29.80 "HgN/A
6:00 PM82 °FBroken clouds.14 mph66%29.77 "HgN/A
5:00 PM84 °FPartly sunny.17 mph62%29.77 "HgN/A
4:00 PM86 °FPartly sunny.17 mph59%29.77 "HgN/A
3:00 PM86 °FPartly sunny.17 mph55%29.80 "HgN/A
Weather by CustomWeather, © 2014

See weather overview